Terminal Aerodrome Forecast
Issued by NWS Binghamton, NY

Home | Current Version | Previous Version | Text Only | Print | Product List | Glossary On
Versions: 1 2 3 4 5 6 7 8 9 10 11 12 13 14 15
417
FTUS41 KBGM 231133
TAFSYR
TAF
KSYR 231133Z 2312/2412 21010KT P6SM OVC100
     FM231500 21010KT P6SM OVC050
      TEMPO 2315/2319 4SM -SHRA OVC025
     FM231900 22010G18KT P6SM -SHRA OVC035
      TEMPO 2321/2324 5SM -SHRA BR OVC025
     FM240000 22008KT 5SM -SHRA BR OVC025
     FM240400 23007KT 3SM -SHRA BR OVC015=

USA.gov is the U.S. government's official web portal to all federal, state and local government web resources and services.